Preview of NWS' New Version of Forecast
This preview is not operational and should not be used for support decisions.

Regional Weather Roundup (RWR)

Issued by National Weather Service (NWS)

                            
000
ASUS45 KBOI 230610
RWRID 

IDAHO REGIONAL WEATHER ROUNDUP
NATIONAL WEATHER SERVICE BOISE ID
1200 AM MDT SUN JUN 23 2019

NOTE: "FAIR" INDICATES FEW OR NO CLOUDS BELOW 12000 FEET
WITH NO SIGNIFICANT WEATHER AND/OR OBSTRUCTIONS TO VISIBILITY

IDZ012-014-230700-
SOUTHWEST IDAHO

  
CITY           SKY/WX    TMP DP  RH WIND       PRES   REMARKS
BOISE          PTCLDY    65  39  38 SE5       30.04F                  
CALDWELL       PTCLDY    59  48  67 NE6       30.02F                  
MOUNTAIN HOME  PTCLDY    57  35  44 W8        30.05S                  
$$

IDZ016-017-230700-
SOUTHCENTRAL IDAHO

  
CITY           SKY/WX    TMP DP  RH WIND       PRES   REMARKS
BURLEY         MOCLDY    53  35  50 SW9       30.10S                  
JEROME         MOCLDY    57  38  48 S6        30.09F                  
TWIN FALLS     MOCLDY    54  29  38 SW12      30.11F                  
$$

IDZ019>023-230700-
SOUTHEAST IDAHO

  
CITY           SKY/WX    TMP DP  RH WIND       PRES   REMARKS
IDAHO FALLS    PTCLDY    49  39  68 E5        30.13S                  
POCATELLO      PTCLDY    57  30  35 SW10      30.12S                  
REXBURG        MOCLDY    51  40  65 N3        30.13S                  
$$

IDZ006-010-011-018-031-032-230700-
CENTRAL IDAHO MOUNTAINS

  
CITY           SKY/WX    TMP DP  RH WIND       PRES   REMARKS
MCCALL         MOCLDY    54  40  59 CALM      30.10F                  
STANLEY          N/A     46  34  62 S3        30.19S                  
SALMON         MOCLDY    51  39  63 CALM      30.10S                  
CHALLIS        MOCLDY    55  35  47 NW6       30.12R                  
$$

IDZ002-004-006-007-026-230700-
NORTHERN IDAHO

  
CITY           SKY/WX    TMP DP  RH WIND       PRES   REMARKS
LEWISTON       PTCLDY    67  50  54 CALM      29.96F                  
LOWELL           N/A     56  53  90 CALM      30.03F                  
COEUR D'ALENE  MOCLDY    62  49  62 S8        29.97F                  
MULLAN PASS    PTCLDY    46  42  86 S6        30.10F                  
$$